GPS BIII-8 (PRN 21)

Last updated on Mon Oct 27 2025 00:03:24 GMT+0000 (Coordinated Universal Time)

1 64202U 25116A 25299.24450229 -.00000062 00000+0 00000+0 0 9991 2 64202 55.0714 40.5599 0003384 300.8774 55.9508 2.00561640 3174
UTC large
Height (km)
Speed (km/s)
/
Latitude / Longitude
Inclination (degrees)
Orbital Period (minutes)
Azimuth
Elevation
Range (km)
Doppler Factor

Next 0 passes for location: London (51.5072 / 0.1276)

Sorry there are no passes over London.